Regional Weather Roundup
Issued by NWS

Home | Current Version | Previous Version | Text Only | Print | Product List | Glossary Off
Versions: 1 2 3 4 5 6 7 8 9 10 11 12 13 14 15 16 17 18 19 20 21 22 23 24 25 26 27 28 29 30 31 32 33 34 35 36 37 38 39 40 41 42 43 44 45 46 47 48 49 50

539
ASUS45 KABQ 232001
RWRNM
NEW MEXICO REGIONAL WEATHER ROUNDUP
NATIONAL WEATHER SERVICE ALBUQUERQUE NM
200 PM MDT MON APR 23 2018

NOTE: "FAIR" MEANS FEW OR NO CLOUDS BELOW 12,000 FEET AGL WITH NO
       SIGNIFICANT WEATHER OR OBSTRUCTIONS TO VISION.

      THIS PRODUCT IS RELEASED AS TWO VERSIONS.  ONE VERSION NEAR
      THE TOP OF THE HOUR CONTAINING PRELIMINARY DATA FROM ALBUQUERQUE
      AND OTHER STATIONS.  A FINAL VERSION WITH ADDITIONAL DATA IS
      ISSUED ABOUT 10 MINUTES AFTER THE HOUR.

NMZ501-503-504-510>518-232100-
NORTHWEST PLATEAU/NORTHCENTRAL MOUNTAINS

CITY           SKY/WX    TMP DP  RH WIND       PRES   REMARKS
FARMINGTON     FAIR      76  19  11 W12G21    30.08F
LOS ALAMOS     PTSUNNY   67  25  21 SE5       30.19F
SANTA FE       FAIR      76  17  11 SW15G25   30.13F
TAOS           FAIR      67  24  19 SW9G17    30.19F
ANGEL FIRE     PTSUNNY   58  22  25 SW3       30.24F

$$
NMZ402-403-502-505>509-232100-
WESTCENTRAL MOUNTAINS/SOUTHWEST MOUNTAINS

CITY           SKY/WX    TMP DP  RH WIND       PRES   REMARKS
GALLUP         FAIR      75  19  12 SW16G25   30.16F
GRANTS         FAIR      75  15  10 W9        30.17F
SILVER CITY    FAIR      77  27  16 CALM      30.14F

$$
NMZ407-409-411-412-232100-
SOUTHERN DESERTS

CITY           SKY/WX    TMP DP  RH WIND       PRES   REMARKS
DEMING         FAIR      84  25  11 SW9       30.08F
LAS CRUCES     FAIR      83  25  11 SE6       30.10F
ALAMOGORDO     FAIR      81  28  15 SW7       30.10F
T OR C         FAIR      81  20  10 VRB5      30.09F

$$
NMZ519>523-232100-
CENTRAL VALLEYS/CENTRAL HIGHLANDS

CITY           SKY/WX    TMP DP  RH WIND       PRES   REMARKS
ALBUQUERQUE    FAIR      77  21  12 S5        30.11F
DOUBLE EAGLE   MOSUNNY   73  25  16 S6        30.14F
MORIARTY ARPT  FAIR      77  19  11 W10G20    30.16S
CLINES CORNERS FAIR      69  21  16 NW15      30.20F
BELEN          FAIR      78  20  11 CALM      30.10F
SOCORRO        FAIR      81  21  11 E9        30.09F

$$
NMZ524>526-539-540-232100-
SOUTHCENTRAL MOUNTAINS

CITY           SKY/WX    TMP DP  RH WIND       PRES   REMARKS
RUIDOSO        NOT AVBL

$$
NMZ527>531-232100-
NORTHEAST HIGHLANDS/NORTHEAST PLAINS

CITY           SKY/WX    TMP DP  RH WIND       PRES   REMARKS
LAS VEGAS      FAIR      71  22  15 VRB7G18   30.13F
RATON          FAIR      68  32  26 S9        30.09F
CLAYTON        FAIR      68  40  35 S21G30    30.06F

$$
NMZ532>537-232100-
EASTCENTRAL PLAINS

CITY           SKY/WX    TMP DP  RH WIND       PRES   REMARKS
SANTA ROSA     FAIR      76  34  21 SE7       30.06F
TUCUMCARI      FAIR      77  39  25 S15G25    30.04F
CANNON AFB     NOT AVBL
CLOVIS AIRPORT FAIR      74  38  27 SW13G18   30.11

$$
NMZ028-029-538-232100-
SOUTHEAST PLAINS

CITY           SKY/WX    TMP DP  RH WIND       PRES   REMARKS
ROSWELL        FAIR      79  36  21 S10G21    30.07F
ARTESIA        FAIR      79  37  22 SE13G22   30.07F
CARLSBAD       FAIR      80  38  22 SE10G21   30.05F
HOBBS          SUNNY     77  34  20 SE14G22   30.11F


$$




USA.gov is the U.S. government's official web portal to all federal, state and local government web resources and services.